Location: Courçay
(47.2523°N, 0.8761°E)
Time: 06:13:03
(UTC+00:00)

Landsat 7 - Pass Details

Date: 18 November 2025
Orbit: 680 x 682 km, 97.9° (Epoch: 10 December)

Event Time Altitude Azimuth Distance (km) Brightness Sun altitude
Rises 16:47:19 0° 143° (SE) 3,033 7.0 -5.3°
Reaches altitude 10° 16:49:39 10° 135° (SE) 2,121 6.1 -5.7°
Maximum altitude 16:53:56 38° 68° (ENE) 1,040 4.2 -6.4°
Drops below altitude 10° 16:58:14 10° 1° (N) 2,135 6.1 -7.1°
Sets 17:00:36 0° 354° (N) 3,054 7.0 -7.4°
